User: anonymous   Login
Location: Mentone
(34.5413°N, 85.5351°W)
Time: 14:18:19
(UTC-06:00)
Language:

SL-8 R/B - Orbit

View from above orbital plane
View from above orbital plane
View from above satellite
View from above satellite

Ground track
Ground track

The orbit data is extracted from the following two-line orbital elements,

1 33066U 08031G   14332.05507559  .00000622  00000-0  13807-3 0  9520
2 33066 048.4421 149.1447 0007711 142.0836 005.0766 14.68986289345684
Epoch (UTC): 28 November 2014 01:19:18
Eccentricity: 0.0007711
inclination: 48.4421°
perigee height: 659 km
apogee height: 670 km
right ascension of ascending node: 149.1447°
argument of perigee: 142.0836°
revolutions per day: 14.68986289
mean anomaly at epoch: 5.0766°
orbit number at epoch: 34568

The dashed part of the orbit path shows where the satellite is in the earth's shadow,  

DLR